When you browse on this site, cookies collect data to enhance your experience and personalize the content and advertising you see.
Visit our Privacy Policy to learn more. By continuing to use the site, you agree to this use of cookies and data.
EN

Hourly Weather Miskolc

Today, 12 July, Sunday

Time Temperature Precipitation Wind Pressure Humidity
00:00 +13°C° 1.9 mm 6 mps 749 mmHg 92%
01:00 +13°C° 0 mm 4 mps 749 mmHg 93%
02:00 +13°C° 1.3 mm 4 mps 749 mmHg 93%
03:00 +13°C° 1.3 mm 4 mps 749 mmHg 93%
04:00 +13°C° 1.3 mm 4 mps 750 mmHg 94%
05:00 +13°C° 0.5 mm 5 mps 750 mmHg 91%
06:00 +13°C° 0.5 mm 5 mps 750 mmHg 88%
07:00 +13°C° 0.5 mm 5 mps 751 mmHg 85%
08:00 +14°C° 0 mm 4 mps 751 mmHg 81%
09:00 +14°C° 0 mm 4 mps 752 mmHg 78%
10:00 +15°C° 0 mm 4 mps 752 mmHg 74%
11:00 +17°C° 0 mm 4 mps 752 mmHg 69%
12:00 +18°C° 0 mm 4 mps 753 mmHg 65%
13:00 +20°C° 0 mm 4 mps 753 mmHg 60%
14:00 +20°C° 0 mm 4 mps 753 mmHg 60%
15:00 +20°C° 0 mm 4 mps 752 mmHg 60%
16:00 +21°C° 0 mm 3 mps 752 mmHg 60%
17:00 +19°C° 0 mm 3 mps 752 mmHg 66%
18:00 +18°C° 0 mm 2 mps 752 mmHg 72%
19:00 +18°C° 0 mm 1 mps 753 mmHg 78%
20:00 +16°C° 0 mm 1 mps 753 mmHg 79%
21:00 +15°C° 0 mm 2 mps 753 mmHg 81%
22:00 +14°C° 0 mm 2 mps 753 mmHg 82%
23:00 +14°C° 0 mm 2 mps 753 mmHg 82%

Tomorrow, 13 July, Monday

Time Temperature Precipitation Wind Pressure Humidity
00:00 +13°C° 0 mm 2 mps 753 mmHg 82%
01:00 +13°C° 0 mm 2 mps 753 mmHg 82%
02:00 +12°C° 0 mm 2 mps 753 mmHg 83%
03:00 +12°C° 0 mm 2 mps 753 mmHg 84%
04:00 +12°C° 0 mm 2 mps 752 mmHg 84%
05:00 +13°C° 0 mm 2 mps 753 mmHg 80%
06:00 +15°C° 0 mm 2 mps 753 mmHg 76%
07:00 +17°C° 0 mm 2 mps 753 mmHg 71%
08:00 +18°C° 0 mm 2 mps 753 mmHg 67%
09:00 +19°C° 0 mm 3 mps 753 mmHg 62%
10:00 +21°C° 0 mm 3 mps 752 mmHg 57%
11:00 +21°C° 0 mm 2 mps 752 mmHg 55%
12:00 +21°C° 0 mm 2 mps 752 mmHg 54%
13:00 +22°C° 0 mm 1 mps 752 mmHg 52%
14:00 +23°C° 0 mm 1 mps 751 mmHg 52%
15:00 +23°C° 0 mm 1 mps 751 mmHg 52%
16:00 +23°C° 0 mm 1 mps 751 mmHg 52%
17:00 +22°C° 0 mm 1 mps 750 mmHg 58%
18:00 +20°C° 0 mm 1 mps 750 mmHg 65%
19:00 +19°C° 0 mm 1 mps 750 mmHg 71%
20:00 +18°C° 0 mm 1 mps 750 mmHg 73%
21:00 +16°C° 0 mm 1 mps 750 mmHg 75%
22:00 +15°C° 0 mm 1 mps 750 mmHg 78%
23:00 +14°C° 0 mm 1 mps 750 mmHg 80%

Day after tomorrow, 14 July, Tuesday

Time Temperature Precipitation Wind Pressure Humidity
00:00 +14°C° 0 mm 1 mps 750 mmHg 82%
01:00 +13°C° 0 mm 2 mps 750 mmHg 84%
02:00 +13°C° 0 mm 2 mps 750 mmHg 84%
03:00 +13°C° 0 mm 2 mps 750 mmHg 85%
04:00 +13°C° 0 mm 2 mps 750 mmHg 86%
05:00 +14°C° 0 mm 2 mps 750 mmHg 81%
06:00 +16°C° 0 mm 2 mps 750 mmHg 76%
07:00 +18°C° 0 mm 2 mps 750 mmHg 71%
08:00 +19°C° 0 mm 2 mps 750 mmHg 66%
09:00 +21°C° 0 mm 2 mps 750 mmHg 61%
10:00 +23°C° 0 mm 2 mps 750 mmHg 55%
11:00 +24°C° 0 mm 2 mps 749 mmHg 53%
12:00 +24°C° 0 mm 1 mps 749 mmHg 51%
13:00 +25°C° 0 mm 1 mps 749 mmHg 49%
14:00 +25°C° 0 mm 1 mps 749 mmHg 50%
15:00 +25°C° 0 mm 1 mps 748 mmHg 50%
16:00 +25°C° 0 mm 1 mps 748 mmHg 51%
17:00 +23°C° 0 mm 1 mps 748 mmHg 57%
18:00 +20°C° 0 mm 0 mps 748 mmHg 63%
19:00 +18°C° 0 mm 0 mps 748 mmHg 68%
20:00 +17°C° 0 mm 0 mps 748 mmHg 71%
21:00 +16°C° 0 mm 0 mps 748 mmHg 74%
22:00 +16°C° 0 mm 1 mps 748 mmHg 77%
23:00 +16°C° 0 mm 1 mps 748 mmHg 78%

15 July, Wednesday

Time Temperature Precipitation Wind Pressure Humidity
00:00 +16°C° 0 mm 1 mps 748 mmHg 80%
01:00 +15°C° 0 mm 1 mps 748 mmHg 81%
02:00 +15°C° 0 mm 1 mps 748 mmHg 83%
03:00 +14°C° 0 mm 1 mps 748 mmHg 85%
04:00 +14°C° 0 mm 1 mps 748 mmHg 86%
05:00 +16°C° 0 mm 1 mps 748 mmHg 82%
06:00 +18°C° 0 mm 1 mps 748 mmHg 78%
07:00 +18°C° 0 mm 0 mps 748 mmHg 74%
08:00 +21°C° 0 mm 1 mps 748 mmHg 70%
09:00 +23°C° 0 mm 1 mps 748 mmHg 65%
10:00 +24°C° 0 mm 1 mps 748 mmHg 61%
11:00 +25°C° 0.1 mm 1 mps 748 mmHg 58%
12:00 +25°C° 0.1 mm 2 mps 747 mmHg 56%
13:00 +26°C° 0.1 mm 2 mps 747 mmHg 54%
14:00 +25°C° 0.1 mm 2 mps 747 mmHg 56%
15:00 +25°C° 0.1 mm 2 mps 747 mmHg 57%
16:00 +25°C° 0.1 mm 2 mps 746 mmHg 59%
17:00 +24°C° 0.1 mm 2 mps 746 mmHg 65%
18:00 +23°C° 0.1 mm 2 mps 746 mmHg 70%
19:00 +21°C° 0.1 mm 1 mps 746 mmHg 76%
20:00 +21°C° 0 mm 1 mps 746 mmHg 76%
21:00 +20°C° 0 mm 1 mps 746 mmHg 76%
22:00 +19°C° 0 mm 1 mps 746 mmHg 77%
23:00 +19°C° 0 mm 1 mps 746 mmHg 77%

16 July, Thursday

Time Temperature Precipitation Wind Pressure Humidity
00:00 +19°C° 0 mm 1 mps 746 mmHg 78%
01:00 +18°C° 0 mm 1 mps 746 mmHg 79%
02:00 +17°C° 0 mm 2 mps 746 mmHg 78%
03:00 +17°C° 0 mm 2 mps 745 mmHg 78%
04:00 +17°C° 0 mm 2 mps 745 mmHg 77%
05:00 +18°C° 0 mm 2 mps 745 mmHg 78%
06:00 +18°C° 0 mm 3 mps 745 mmHg 79%
07:00 +18°C° 0 mm 3 mps 746 mmHg 80%
08:00 +19°C° 0 mm 4 mps 746 mmHg 77%
09:00 +20°C° 0 mm 4 mps 746 mmHg 74%
10:00 +20°C° 0 mm 5 mps 746 mmHg 71%
11:00 +21°C° 0 mm 5 mps 746 mmHg 67%
12:00 +22°C° 0 mm 5 mps 746 mmHg 63%
13:00 +23°C° 0 mm 4 mps 746 mmHg 59%
14:00 +23°C° 0.1 mm 4 mps 745 mmHg 60%
15:00 +23°C° 0.1 mm 4 mps 745 mmHg 61%
16:00 +24°C° 0.1 mm 3 mps 745 mmHg 62%
17:00 +21°C° 0.3 mm 3 mps 745 mmHg 68%
18:00 +20°C° 0.3 mm 3 mps 745 mmHg 74%
19:00 +18°C° 0.3 mm 3 mps 745 mmHg 80%
20:00 +18°C° 0 mm 3 mps 745 mmHg 81%
21:00 +17°C° 0 mm 3 mps 745 mmHg 83%
22:00 +16°C° 0 mm 3 mps 745 mmHg 84%
23:00 +14°C° 0 mm 3 mps 745 mmHg 86%

17 July, Friday

Time Temperature Precipitation Wind Pressure Humidity
00:00 +15°C° 0 mm 2 mps 745 mmHg 88%
01:00 +14°C° 0 mm 2 mps 745 mmHg 90%
02:00 +14°C° 0 mm 2 mps 744 mmHg 91%
03:00 +13°C° 0 mm 2 mps 744 mmHg 92%
04:00 +13°C° 0 mm 2 mps 744 mmHg 92%
05:00 +13°C° 0 mm 3 mps 744 mmHg 87%
06:00 +15°C° 0 mm 4 mps 744 mmHg 81%
07:00 +16°C° 0 mm 5 mps 744 mmHg 75%
08:00 +19°C° 0 mm 5 mps 744 mmHg 69%
09:00 +20°C° 0 mm 5 mps 744 mmHg 63%
10:00 +22°C° 0 mm 5 mps 744 mmHg 57%
11:00 +22°C° 0 mm 4 mps 744 mmHg 55%
12:00 +23°C° 0 mm 4 mps 744 mmHg 53%
13:00 +23°C° 0 mm 4 mps 745 mmHg 51%
14:00 +24°C° 0 mm 3 mps 745 mmHg 52%
15:00 +24°C° 0 mm 2 mps 745 mmHg 52%
16:00 +24°C° 0 mm 2 mps 745 mmHg 53%
17:00 +23°C° 0 mm 1 mps 745 mmHg 60%
18:00 +21°C° 0 mm 1 mps 745 mmHg 67%
19:00 +20°C° 0 mm 1 mps 745 mmHg 75%
20:00 +19°C° 0 mm 1 mps 746 mmHg 76%
21:00 +18°C° 0 mm 1 mps 746 mmHg 78%
22:00 +16°C° 0 mm 1 mps 746 mmHg 80%
23:00 +16°C° 0 mm 1 mps 747 mmHg 82%
Show more